{"data":{"norad_id":56770,"intl_designator":"2023-078D","name":"STARLINK-6342","alt_names":[],"object_type":"PAYLOAD","status":"ACTIVE","operator":null,"country":"US","launch_date":"2023-05-31","launch_site_code":"AFWTR","launch_vehicle":null,"mission":null,"orbit_class":"UNKNOWN","rcs_meters":null,"size_class":null,"mass_kg":null,"dimensions":null,"purposes":["comms"],"wikipedia_slug":null,"has_3d_model":false,"image_url":null,"decayed_at":null,"tle_current":{"epoch":"2026-05-25T02:34:14.769696Z","epoch_age_seconds":59174,"freshness":"FRESH","line1":"1 56770U 23078D   26145.10711539  .00000040  00000+0  11155-4 0  9990","line2":"2 56770  69.9984 171.7833 0003710 267.5345  92.5390 14.98331345163633","mean_motion":14.98331345,"eccentricity":0.000371,"inclination_deg":69.9984,"raan_deg":171.7833,"arg_perigee_deg":267.5345,"mean_anomaly_deg":92.539,"bstar":1.1155e-5,"rev_number":16363,"period_min":96.106912853779,"perigee_km":569.47321162654,"apogee_km":574.63025166542,"semimajor_km":6950.188731646,"source":"CELESTRAK","updated_at":"2026-05-25T13:38:18.123931Z"}}}